Temp
-8 -8 -8 -8 -9 -9 -8 -9 -9 -9 -9 -8 -8 -8 -8 -7 -7 -7 -7 -8 -8 -8 -8 -8 -7 -7 -7 -7 -7 -7 -7 -8 -7 -7 -7 -7 -7 -7 -6 -6 -6 -6 -6
-10 -8 -9 -8 -9 -9 -9 -9 -9 -9 -9 -9 -8 -8 -8 -8 -8 -7 -7 -7 -7 -7 -7 -7 -8 -8 -8 -7 -7 -7 -8 -8 -8 -8 -8 -7 -7 -7 -7 -7 -7 -7 -7
-9 -9 -10 -10 -10 -9 -9 -9 -9 -9 -10 -9 -9 -9 -9 -8 -8 -8 -7 -7 -7 -7 -7 -7 -7 -8 -8 -8 -8 -8 -8 -8 -8 -8 -8 -8 -8 -8 -7 -7 -7 -7 -7
-9 -9 -9 -10 -10 -10 -10 -10 -9 -10 -10 -10 -10 -10 -9 -9 -9 -8 -7 -7 -7 -7 -7 -7 -7 -7 -8 -8 -9 -9 -9 -8 -8 -8 -8 -8 -8 -8 -8 -7 -8 -7 -7
-9 -9 -9 -10 -11 -10 -10 -10 -10 -10 -10 -10 -10 -10 -9 -10 -9 -9 -9 -9 -8 -7 -7 -7 -7 -7 -8 -8 -9 -9 -9 -9 -9 -9 -8 -9 -9 -8 -9 -8 -8 -8 -8
-9 -8 -8 -9 -9 -9 -10 -10 -10 -10 -10 -10 -10 -10 -10 -10 -9 -9 -9 -9 -9 -9 -8 -8 -8 -8 -8 -8 -8 -9 -9 -9 -9 -9 -9 -9 -9 -9 -9 -9 -9 -8 -8
-10 -9 -9 -9 -9 -9 -10 -10 -10 -10 -10 -10 -10 -10 -10 -10 -10 -9 -9 -9 -9 -10 -10 -9 -9 -9 -9 -8 -8 -9 -8 -9 -9 -9 -9 -9 -9 -9 -9 -9 -9 -8 -8
-9 -9 -8 -9 -9 -11 -10 -9 -10 -10 -10 -10 -10 -10 -10 -10 -10 -10 -9 -9 -9 -9 -9 -9 -9 -9 -9 -9 -8 -9 -9 -9 -9 -9 -9 -9 -9 -9 -9 -9 -9 -9 -8
-9 -8 -9 -8 -9 -10 -9 -10 -10 -10 -10 -10 -10 -10 -10 -10 -10 -10 -9 -9 -9 -9 -8 -8 -9 -9 -9 -9 -8 -9 -9 -9 -8 -9 -9 -9 -9 -9 -9 -9 -9 -9 -9
-9 -9 -9 -10 -10 -11 -10 -10 -10 -10 -10 -11 -10 -10 -10 -10 -10 -9 -9 -9 -9 -9 -9 -8 -8 -8 -8 -9 -9 -9 -9 -8 -9 -8 -9 -9 -9 -9 -9 -9 -9 -10 -10
-8 -8 -8 -9 -9 -10 -11 -10 -11 -10 -10 -11 -10 -10 -10 -10 -10 -9 -9 -8 -8 -8 -8 -8 -8 -8 -8 -8 -9 -9 -8 -9 -9 -9 -9 -9 -9 -9 -9 -9 -10 -10 -10
-8 -8 -8 -8 -8 -9 -10 -9 -10 -10 -11 -10 -10 -10 -9 -10 -10 -10 -9 -8 -8 -8 -8 -8 -8 -8 -8 -8 -8 -9 -9 -9 -9 -9 -9 -9 -9 -9 -9 -9 -10 -10 -10
-7 -8 -9 -9 -9 -9 -9 -10 -10 -11 -10 -10 -10 -9 -9 -9 -9 -9 -9 -8 -8 -8 -8 -9 -8 -8 -9 -9 -9 -9 -9 -9 -10 -9 -9 -9 -9 -9 -9 -9 -9 -10 -10
-9 -9 -9 -9 -10 -9 -10 -11 -10 -10 -10 -10 -9 -9 -9 -9 -8 -8 -8 -8 -8 -9 -8 -8 -8 -7 -9 -9 -10 -10 -10 -10 -10 -10 -10 -10 -9 -9 -9 -9 -10 -9 -10
-10 -10 -11 -11 -10 -11 -10 -10 -10 -10 -10 -10 -9 -8 -8 -8 -8 -8 -8 -8 -8 -8 -8 -7 -7 -6 -7 -8 -9 -9 -10 -10 -10 -10 -9 -10 -10 -9 -9 -9 -10 -9 -10
-12 -12 -11 -11 -10 -10 -10 -10 -9 -9 -9 -9 -9 -8 -8 -8 -8 -8 -8 -8 -8 -8 -8 -8 -8 -8 -8 -9 -9 -9 -9 -10 -10 -10 -10 -10 -10 -9 -9 -9 -9 -10 -10
-12 -12 -11 -11 -11 -10 -10 -9 -9 -9 -9 -9 -9 -9 -9 -9 -8 -8 -8 -8 -8 -8 -8 -8 -8 -9 -9 -9 -9 -9 -10 -10 -10 -10 -10 -10 -10 -9 -9 -10 -10 -10 -10
-11 -11 -11 -11 -11 -11 -10 -10 -10 -10 -10 -10 -10 -10 -10 -9 -9 -9 -9 -9 -9 -9 -9 -9 -8 -9 -9 -9 -9 -10 -9 -10 -10 -10 -9 -10 -9 -10 -10 -10 -11 -11 -11
-11 -11 -11 -11 -11 -11 -11 -11 -10 -10 -10 -10 -10 -10 -10 -10 -10 -10 -10 -10 -10 -10 -10 -10 -10 -10 -10 -10 -10 -10 -10 -11 -10 -10 -10 -10 -10 -10 -10 -11 -11 -11 -11
-12 -12 -12 -12 -11 -11 -11 -11 -11 -11 -11 -11 -11 -11 -10 -10 -10 -10 -10 -10 -10 -10 -10 -10 -10 -10 -11 -10 -10 -10 -10 -11 -11 -11 -11 -11 -11 -11 -11 -11 -11 -11 -11
-12 -12 -12 -12 -12 -12 -12 -12 -12 -12 -11 -11 -12 -11 -11 -12 -11 -11 -11 -11 -11 -11 -11 -11 -10 -10 -11 -11 -11 -11 -10 -11 -11 -11 -12 -12 -11 -12 -12 -12 -12 -12 -12
-13 -12 -12 -12 -13 -13 -13 -13 -13 -13 -13 -13 -13 -13 -12 -12 -12 -12 -12 -12 -12 -12 -11 -12 -12 -11 -11 -12 -11 -11 -11 -12 -12 -12 -12 -12 -13 -12 -13 -12 -13 -13 -13
-13 -13 -14 -14 -14 -14 -14 -14 -14 -14 -14 -14 -14 -14 -14 -14 -14 -14 -13 -13 -13 -12 -13 -13 -13 -12 -12 -12 -13 -12 -12 -12 -13 -13 -13 -13 -13 -13 -13 -13 -13 -14 -13
-15 -15 -15 -14 -14 -14 -14 -14 -14 -14 -14 -14 -15 -14 -15 -15 -15 -14 -14 -14 -14 -13 -14 -14 -14 -13 -13 -14 -13 -13 -13 -13 -13 -13 -13 -13 -13 -13 -14 -14 -14 -15 -15
-15 -15 -15 -15 -15 -15 -15 -15 -15 -15 -15 -15 -15 -15 -15 -15 -16 -15 -15 -15 -14 -14 -15 -14 -14 -15 -14 -15 -15 -15 -14 -14 -14 -14 -14 -15 -15 -15 -15 -15 -14 -16 -17
-16 -16 -16 -16 -15 -15 -15 -16 -16 -16 -16 -16 -16 -16 -16 -17 -17 -17 -17 -16 -16 -16 -15 -15 -15 -15 -15 -16 -15 -15 -15 -15 -15 -15 -15 -16 -16 -17 -17 -17 -17 -17 -17
Height
5862 5862 5862 5860 5860 5859 5856 5855 5852 5850 5848 5846 5845 5844 5844 5843 5841 5840 5838 5838 5839 5838 5839 5840 5841 5842 5844 5845 5846 5846 5846 5848 5849 5850 5851 5851 5851 5851 5851 5850 5849 5848 5847
5854 5856 5856 5857 5856 5856 5854 5852 5849 5847 5846 5844 5843 5842 5841 5840 5840 5839 5837 5836 5836 5836 5836 5835 5836 5837 5837 5837 5838 5839 5840 5841 5842 5842 5843 5845 5845 5846 5844 5844 5844 5843 5841
5847 5847 5848 5850 5851 5852 5852 5850 5848 5845 5844 5842 5840 5839 5838 5837 5837 5836 5835 5834 5833 5832 5832 5832 5832 5832 5832 5831 5832 5833 5834 5835 5835 5836 5836 5838 5839 5839 5839 5839 5838 5838 5837
5841 5841 5839 5840 5840 5841 5844 5845 5845 5843 5841 5840 5838 5835 5835 5834 5833 5832 5832 5831 5830 5828 5827 5827 5828 5828 5827 5828 5828 5829 5829 5829 5829 5830 5830 5831 5833 5833 5834 5834 5834 5833 5833
5832 5831 5825 5831 5833 5836 5836 5835 5839 5839 5838 5836 5834 5832 5830 5830 5829 5830 5828 5826 5825 5824 5823 5822 5823 5823 5823 5823 5822 5823 5823 5823 5825 5825 5825 5826 5827 5829 5829 5830 5829 5828 5828
5820 5821 5819 5823 5827 5829 5831 5829 5829 5833 5834 5833 5831 5828 5826 5825 5823 5823 5823 5820 5819 5820 5819 5818 5817 5817 5817 5818 5818 5818 5817 5817 5819 5820 5820 5819 5821 5823 5824 5824 5825 5824 5823
5810 5815 5811 5815 5821 5822 5822 5823 5822 5825 5829 5827 5825 5823 5821 5820 5818 5816 5816 5815 5814 5813 5813 5814 5813 5812 5812 5811 5811 5810 5811 5813 5813 5813 5813 5814 5815 5816 5818 5818 5818 5819 5819
5805 5806 5809 5812 5811 5812 5814 5815 5815 5816 5820 5820 5819 5817 5816 5813 5812 5810 5809 5808 5808 5807 5807 5807 5807 5808 5808 5806 5806 5806 5806 5806 5806 5806 5806 5807 5807 5809 5810 5812 5811 5812 5812
5794 5793 5792 5795 5799 5803 5806 5809 5809 5808 5810 5812 5811 5810 5809 5807 5804 5803 5802 5801 5800 5800 5800 5801 5801 5801 5800 5801 5799 5800 5800 5800 5800 5801 5799 5800 5800 5802 5802 5804 5803 5803 5804
5782 5781 5778 5778 5784 5790 5794 5799 5798 5798 5803 5804 5803 5801 5800 5799 5797 5795 5794 5794 5791 5791 5792 5793 5793 5793 5793 5792 5793 5793 5794 5793 5794 5795 5794 5794 5792 5794 5796 5796 5796 5797 5798
5766 5762 5763 5748 5750 5763 5776 5786 5787 5790 5795 5795 5794 5793 5792 5790 5788 5787 5784 5784 5783 5782 5782 5782 5783 5782 5784 5784 5783 5785 5786 5787 5786 5788 5788 5788 5786 5787 5787 5788 5789 5789 5789
5754 5749 5754 5732 5737 5743 5760 5767 5777 5784 5785 5787 5786 5785 5783 5781 5778 5776 5775 5773 5772 5772 5773 5772 5772 5773 5772 5773 5773 5774 5776 5777 5779 5779 5780 5781 5780 5780 5781 5781 5781 5782 5782
5735 5730 5736 5737 5742 5747 5756 5764 5771 5774 5776 5778 5775 5774 5773 5769 5768 5767 5765 5765 5762 5762 5764 5763 5761 5760 5757 5757 5762 5763 5765 5768 5768 5769 5771 5772 5773 5772 5772 5773 5773 5772 5773
5727 5725 5729 5735 5741 5747 5753 5759 5763 5766 5768 5766 5764 5763 5761 5758 5759 5757 5758 5756 5754 5754 5751 5752 5751 5746 5744 5744 5747 5751 5756 5757 5757 5759 5760 5761 5763 5763 5763 5764 5763 5764 5764
5729 5730 5732 5737 5742 5746 5750 5754 5756 5757 5755 5753 5752 5752 5750 5750 5748 5748 5747 5746 5746 5744 5741 5738 5736 5732 5730 5736 5738 5740 5743 5746 5748 5749 5750 5750 5752 5753 5753 5752 5752 5753 5754
5729 5734 5736 5739 5741 5742 5743 5744 5745 5744 5743 5741 5740 5741 5739 5741 5740 5739 5738 5736 5735 5733 5732 5729 5729 5727 5728 5727 5729 5730 5732 5734 5737 5738 5738 5738 5739 5741 5740 5739 5739 5739 5739
5726 5730 5732 5734 5734 5734 5733 5732 5731 5732 5732 5731 5731 5730 5730 5730 5729 5728 5728 5726 5726 5725 5724 5722 5721 5722 5722 5722 5721 5721 5722 5723 5723 5725 5726 5726 5727 5726 5726 5725 5724 5726 5727
5719 5720 5721 5722 5722 5722 5722 5722 5721 5720 5720 5721 5721 5720 5720 5718 5716 5716 5717 5717 5716 5713 5712 5710 5711 5710 5711 5711 5711 5711 5710 5710 5710 5711 5711 5712 5712 5712 5711 5711 5712 5712 5712
5712 5712 5713 5712 5712 5711 5710 5710 5710 5710 5710 5708 5708 5709 5709 5709 5707 5705 5705 5704 5704 5703 5702 5701 5701 5700 5701 5701 5700 5699 5699 5699 5697 5696 5695 5696 5696 5696 5697 5698 5699 5699 5701
5708 5708 5708 5707 5706 5706 5706 5704 5703 5702 5701 5697 5697 5696 5694 5693 5693 5692 5692 5693 5693 5693 5691 5691 5690 5690 5689 5690 5690 5690 5689 5688 5688 5685 5684 5685 5683 5683 5686 5686 5688 5688 5688
5702 5702 5700 5699 5699 5697 5696 5694 5691 5689 5688 5686 5684 5684 5682 5682 5682 5681 5680 5679 5679 5679 5679 5678 5678 5679 5679 5678 5679 5678 5677 5677 5677 5678 5675 5672 5673 5673 5673 5675 5676 5677 5678
5692 5691 5689 5687 5685 5684 5683 5681 5680 5678 5676 5674 5672 5670 5670 5668 5669 5669 5670 5670 5669 5668 5667 5667 5666 5666 5667 5665 5664 5665 5665 5667 5666 5667 5667 5666 5664 5665 5666 5666 5665 5666 5667
5681 5679 5678 5676 5674 5674 5673 5672 5672 5670 5668 5666 5664 5662 5661 5658 5657 5657 5656 5657 5657 5656 5655 5656 5656 5656 5658 5657 5656 5657 5657 5658 5657 5657 5658 5657 5657 5657 5656 5656 5656 5655 5655
5671 5671 5670 5668 5668 5667 5665 5664 5662 5661 5659 5657 5655 5653 5652 5649 5648 5647 5646 5647 5647 5644 5644 5646 5647 5646 5647 5647 5646 5647 5649 5650 5650 5648 5647 5648 5647 5646 5645 5646 5646 5645 5646
5664 5663 5662 5660 5658 5658 5656 5655 5653 5651 5648 5646 5644 5641 5641 5639 5639 5638 5638 5636 5638 5637 5635 5636 5638 5638 5638 5638 5639 5639 5640 5641 5641 5640 5639 5638 5637 5637 5637 5635 5636 5635 5634
5659 5658 5655 5654 5652 5651 5649 5646 5644 5642 5640 5639 5637 5635 5633 5633 5631 5630 5629 5629 5629 5628 5629 5630 5630 5629 5629 5628 5629 5630 5630 5630 5630 5629 5629 5628 5628 5628 5626 5626 5626 5626 5626
Wind_Speed
21 24 23 17 18 14 8 8 9 9 6 4 5 6 7 7 7 6 7 7 9 9 12 17 21 18 25 27 31 25 24 27 28 29 27 27 27 28 26 26 27 26 27
18 19 18 19 21 18 14 11 6 5 6 6 8 8 8 10 11 8 6 6 9 11 12 13 13 17 19 19 20 20 22 23 24 26 26 25 26 26 24 24 23 24 21
20 22 22 19 22 18 19 18 16 13 12 10 9 10 12 13 13 14 13 11 10 12 13 14 14 16 17 18 19 21 23 24 23 23 22 22 23 24 24 22 21 22 20
29 29 29 28 26 22 20 22 20 18 17 16 13 11 13 16 17 16 17 17 14 12 12 15 16 16 16 16 18 21 21 22 23 23 23 22 23 24 25 25 25 23 23
33 35 43 33 30 27 25 21 24 24 23 20 18 16 16 15 17 18 19 19 21 19 16 16 17 16 19 19 19 22 23 23 23 22 20 21 19 21 22 23 24 21 19
42 47 46 32 21 28 29 25 24 27 25 23 22 20 19 19 17 16 21 20 19 21 21 19 18 17 17 18 21 21 20 20 21 24 25 22 22 22 22 22 23 21 19
43 47 35 33 33 31 33 32 28 28 27 27 27 24 21 22 19 18 18 18 19 18 18 19 19 17 16 15 16 19 23 24 23 22 23 24 24 24 25 25 27 23 21
31 29 35 43 38 39 37 35 32 27 32 32 30 28 26 24 24 23 21 21 23 21 21 21 22 21 21 18 16 16 18 20 22 24 23 23 24 26 25 26 25 25 24
40 36 33 38 43 34 40 39 37 30 36 33 32 29 29 28 25 27 26 24 24 24 24 27 26 26 24 24 22 21 20 20 21 26 23 24 26 26 27 29 27 28 27
35 41 47 53 52 50 44 47 40 33 39 37 33 32 32 33 33 30 28 30 25 27 29 28 29 29 28 29 28 28 26 24 23 25 26 25 24 26 29 30 28 29 29
45 50 53 70 72 69 58 55 40 39 42 38 35 35 35 36 37 36 32 28 29 30 30 29 31 33 34 35 35 32 31 31 29 29 29 28 26 26 27 30 31 32 31
48 50 39 36 43 55 54 39 38 41 41 40 37 37 40 40 40 41 35 28 26 28 30 33 36 36 39 38 37 37 34 34 35 34 33 32 29 28 29 29 30 31 31
40 37 41 36 36 35 34 37 41 41 41 40 37 38 40 38 37 34 35 31 29 29 31 35 38 41 49 44 43 42 37 37 36 38 36 36 36 33 33 35 33 32 33
18 28 33 37 28 31 35 38 40 37 38 38 40 38 36 33 34 33 32 36 34 33 33 35 39 47 48 46 49 45 44 39 37 36 36 36 34 35 36 38 38 38 35
16 13 12 18 28 35 35 35 36 37 39 39 36 33 31 33 36 35 35 35 35 35 35 38 40 29 34 41 39 42 41 39 37 36 35 34 34 37 39 40 42 41 39
8 11 16 22 26 29 32 34 35 35 34 33 32 33 33 34 35 35 35 35 38 35 35 34 34 21 34 36 39 39 42 42 40 40 38 38 40 44 47 49 46 44 46
20 24 26 29 31 34 32 32 30 30 30 30 32 33 33 36 35 34 34 34 36 35 33 34 32 28 28 35 37 38 40 42 44 40 47 47 46 49 50 43 41 43 45
23 23 23 24 25 26 27 28 29 31 32 35 36 38 38 37 37 37 37 36 37 37 35 34 37 35 33 34 38 40 41 44 45 45 46 49 47 46 40 46 44 45 42
23 26 27 27 27 28 30 32 34 36 38 38 39 41 43 43 41 40 41 39 37 37 38 38 39 39 38 32 34 38 39 40 36 34 44 49 45 41 44 42 42 46 43
26 28 29 31 32 34 36 38 39 39 41 41 41 43 42 42 40 40 39 40 37 36 35 36 37 39 38 39 43 43 45 44 46 35 40 41 39 43 42 38 38 36 43
27 29 30 32 33 34 34 36 38 39 42 42 40 41 43 44 44 41 38 36 37 36 35 36 37 39 40 40 41 44 42 41 39 36 22 16 28 33 33 34 33 34 35
32 32 32 32 32 32 33 33 33 34 35 37 38 39 41 42 42 44 41 35 35 35 34 30 28 31 27 28 27 31 38 38 30 29 35 35 30 29 32 34 35 37 39
30 29 29 29 29 30 31 32 32 31 32 32 32 32 31 31 32 33 34 32 32 32 29 33 34 31 33 31 20 21 26 28 29 26 31 31 32 35 35 34 35 32 36
27 28 27 28 29 29 29 29 30 30 31 31 31 30 30 29 24 21 21 22 21 26 26 25 21 23 25 25 25 27 28 29 33 34 32 35 31 32 29 29 28 27 29
25 25 25 24 24 23 23 24 25 26 27 27 25 25 25 25 24 23 19 19 22 19 17 20 21 25 23 19 23 27 26 30 33 32 33 33 34 30 27 27 32 30 27
24 24 23 23 23 22 21 19 18 19 21 23 19 18 20 22 23 23 24 24 26 29 28 29 30 26 26 26 28 28 28 27 28 27 23 23 21 22 22 24 25 26 27
Wind_Direction
279 282 284 274 274 267 280 283 278 275 290 315 308 289 276 266 270 273 269 261 256 242 235 241 254 243 252 254 253 257 258 256 260 266 270 272 275 276 276 271 273 275 265
257 272 280 280 269 265 265 267 261 251 257 253 260 276 295 298 273 265 258 264 260 254 258 259 252 247 251 252 251 250 254 254 255 260 265 270 273 274 271 272 275 268 271
250 252 245 258 265 261 265 262 267 269 278 279 283 280 270 261 271 270 261 258 256 255 258 256 255 255 251 246 250 251 252 255 256 260 264 268 269 272 270 266 271 270 262
244 250 246 239 237 234 251 261 269 274 273 286 294 298 291 284 273 257 264 268 263 260 260 260 253 249 252 258 260 260 258 258 262 265 266 267 268 270 268 266 261 265 268
251 248 234 235 234 240 236 244 264 267 278 285 293 301 298 287 290 297 275 268 267 264 257 250 254 253 249 251 256 259 259 260 260 257 261 266 264 265 260 264 260 262 265
247 255 248 242 234 234 239 242 248 265 275 281 292 299 297 290 293 300 303 278 260 260 259 251 244 245 251 257 256 258 265 262 260 264 272 266 264 262 259 258 259 258 260
247 261 274 248 248 238 236 242 245 259 272 275 283 290 290 288 289 292 297 297 277 269 263 266 266 258 255 259 262 260 260 259 258 260 266 268 266 261 261 259 261 262 262
249 263 265 256 250 238 235 241 244 251 265 269 278 287 285 283 287 290 290 288 289 280 277 274 264 269 268 258 255 256 257 256 258 259 259 263 264 263 262 259 260 265 262
280 281 285 282 272 251 241 240 246 246 258 266 274 279 281 283 286 288 288 284 282 280 279 273 273 272 264 268 262 259 253 259 262 261 253 256 256 260 259 259 257 256 257
282 277 273 268 257 252 232 239 237 243 256 264 274 282 283 285 287 283 284 286 280 276 273 280 270 265 273 269 263 262 260 255 255 261 263 255 256 258 260 260 259 259 260
279 273 269 271 259 247 238 229 235 239 250 261 270 277 279 281 286 286 282 278 280 275 276 272 273 269 272 266 264 256 259 260 257 257 259 260 258 258 260 262 261 260 260
270 270 263 210 202 216 222 213 226 240 250 260 269 274 277 279 285 284 277 277 273 274 279 279 278 275 273 265 261 259 256 254 259 259 261 260 260 262 262 264 264 264 264
279 246 213 203 191 192 203 219 230 241 252 262 269 273 274 279 280 277 280 278 274 272 278 273 275 277 273 265 257 259 258 261 257 259 258 262 264 262 262 265 264 265 267
251 187 183 188 191 205 216 227 238 250 260 267 272 273 273 277 276 276 278 280 283 282 280 278 284 283 268 257 255 254 256 254 254 258 261 259 262 265 268 270 271 269 264
192 180 183 201 214 220 229 241 252 258 266 271 271 269 271 272 273 275 276 280 281 282 282 287 293 288 233 256 254 254 252 250 253 258 259 258 260 264 267 270 271 267 266
225 232 223 232 240 242 247 253 259 264 267 268 269 271 272 271 272 272 275 277 278 275 276 281 287 254 241 251 253 253 250 250 255 260 259 256 259 264 269 277 267 260 266
265 262 258 253 252 253 253 254 255 257 261 263 266 269 270 270 270 272 273 269 270 271 271 270 272 262 248 248 256 251 249 252 255 260 264 262 267 275 272 258 253 253 257
270 268 266 266 268 269 267 268 270 272 271 268 266 263 266 267 269 272 272 273 268 264 262 260 263 262 262 261 259 253 257 260 262 258 258 260 261 265 258 245 249 249 246
281 283 282 282 282 283 284 283 280 278 277 274 273 274 272 270 270 273 274 272 270 265 262 262 262 263 265 256 249 262 267 275 266 264 253 256 254 245 254 256 254 236 243
283 279 278 278 278 276 275 276 276 275 275 276 275 272 272 273 274 274 275 277 274 269 266 262 261 258 256 259 258 263 266 272 280 275 261 263 249 246 249 252 254 258 249
281 280 281 282 281 281 281 280 282 283 281 283 285 282 280 277 275 271 270 268 267 268 270 266 267 266 263 257 261 263 267 272 276 282 263 272 254 258 263 259 258 261 265
284 286 286 286 287 287 287 286 285 284 284 284 283 282 280 278 277 272 274 272 271 271 271 271 266 267 262 263 260 265 262 264 272 270 266 276 287 274 264 261 266 266 268
284 284 285 285 285 285 286 286 286 287 287 288 287 287 287 286 285 283 278 274 270 263 263 265 267 269 261 272 251 254 263 264 255 258 264 265 260 264 263 271 275 275 275
282 281 281 282 283 284 284 284 285 286 286 287 289 292 291 284 277 270 264 267 275 269 265 263 260 261 267 263 268 273 277 272 277 276 268 267 266 267 270 275 281 292 296
282 281 281 284 286 286 286 287 288 288 288 288 288 285 284 281 269 255 244 238 236 247 252 272 259 257 259 274 282 279 274 280 272 272 284 299 305 304 296 297 294 295 285
280 279 280 279 280 284 287 289 290 292 291 287 286 281 277 270 264 259 253 252 248 247 252 253 266 276 281 289 293 294 294 292 292 295 292 292 287 286 289 287 283 281 283